{"data":{"norad_id":68797,"intl_designator":"2026-088F","name":"WASEDA-SAT-ZERO-II","alt_names":[],"object_type":"PAYLOAD","status":"ACTIVE","operator":null,"country":"JPN","launch_date":"2026-04-23","launch_site_code":"RLLB","launch_vehicle":null,"mission":null,"orbit_class":"UNKNOWN","rcs_meters":null,"size_class":null,"mass_kg":null,"dimensions":null,"purposes":[],"wikipedia_slug":null,"has_3d_model":false,"image_url":null,"decayed_at":null,"tle_current":{"epoch":"2026-09-19T15:26:45.070080Z","epoch_age_seconds":133623,"freshness":"FRESH","line1":"1 68797U 26088F   26262.64357720  .00004134  00000+0  26074-3 0  9996","line2":"2 68797  97.5183  50.0502 0016405 112.7189 247.5777 15.09553759 22540","mean_motion":15.09553759,"eccentricity":0.0016405,"inclination_deg":97.5183,"raan_deg":50.0502,"arg_perigee_deg":112.7189,"mean_anomaly_deg":247.5777,"bstar":0.00026074,"rev_number":2254,"period_min":95.392429147666,"perigee_km":526.21736777136,"apogee_km":548.90777807011,"semimajor_km":6915.6995729207,"source":"CELESTRAK","updated_at":"2026-09-20T09:00:24.463887Z"}}}